sat.trackr.live / text

‹ back to catalog

STARLINK-11109 [DTC]

NORAD 60306 · 2024-133F

PAYLOAD ACTIVE UNKNOWN

§ Identity

Operator
Country
US
Launch date
2024-07-28
Launch site
AFWTR
Launch vehicle
Mass (kg)
RCS (m²)

Purposes: comms

External: N2YO · Heavens-Above · Gunter

§ Orbital elements

Epoch: 2026-05-25T03:32:59.496576Z

Period
91.74 min
Inclination
53.1584°
Eccentricity
0.0000940
Mean motion
15.69711652 rev/d
Perigee alt
359.1 km
Apogee alt
360.4 km
Semi-major
6,737.9 km
B*
6.9563e-6
RAAN
129.2439°
Arg perigee
82.3058°
Mean anomaly
277.8067°
Rev number
10,574

§ Raw data

STARLINK-11109 [DTC]1 60306U 24133F   26145.14791084  .00000254  00000+0  69563-5 0  99942 60306  53.1584 129.2439 0000940  82.3058 277.8067 15.69711652105749

JSON: /api/v1/satellites/60306 · /tle

For live sub-satellite position, see the globe view (requires WebGL).

§ Visibility from observer

Set your observer location to see the next 7 days of passes ≥ 10°. The values pass through the URL so the page stays shareable.

No JS? Fill the form by hand. The geolocation button needs JavaScript.